Main page
METAR-TAF:

METAR-TAF

Airports :

Skyros Island National Airport

Skyros, Greece

latitude: 38-58-03N, longitude: 024-29-14E, elevation: 13 m

METAR: missing

Time: 16:51 (13:51 UTC)

Forecast

The report was made 2 hours and 51 minutes ago, at 11:00 UTC
Forecast valid from 20 at 12 UTC to 20 at 21 UTC
Wind 15 kt from the South
Visibility 10 km or more
Scattered clouds at a height of 2500 ft

TAF: LGSY 201100Z 2012/2021 18015KT 9999 SCT025

Weather observations and forecasts of more than 4000 airports (METAR and TAF reports).

The available stations are represented by yellow and red dots on the map.

Hover mouse over dot to see the name of the station.

Then click to see weather observations and forecasts.

To change the map : click on the green buttons with a black cross to zoom in, on the green button with a dash to zoom out, or on the green arrows for adjacent maps.


METAR-TAF: